�������l�o���
Date,Time,MP-1(��Sv/h),MP-2(��Sv/h),MP-3(��Sv/h),MP-4(��Sv/h),MP-5(��Sv/h),MP-6(��Sv/h),MP-7(��Sv/h),MP-8(��Sv/h),����,����(m/s),���J
2019/08/10,00:00,0.780,1.111,0.765,1.351,1.003,0.435,0.757,0.710,�k��,2.0,��
2019/08/10,00:10,0.778,1.113,0.764,1.355,1.004,0.434,0.757,0.713,���k��,1.2,��
2019/08/10,00:20,0.780,1.113,0.766,1.351,1.003,0.435,0.757,0.712,�k�k��,1.7,��
2019/08/10,00:30,0.779,1.111,0.763,1.355,1.005,0.436,0.756,0.713,�k��,2.5,��
2019/08/10,00:40,0.781,1.112,0.765,1.352,1.002,0.435,0.757,0.714,�k��,2.0,��
2019/08/10,00:50,0.779,1.113,0.764,1.353,1.004,0.434,0.757,0.715,�k,2.2,��
2019/08/10,01:00,0.779,1.111,0.763,1.352,1.005,0.436,0.757,0.713,�k�k��,3.8,��
2019/08/10,01:10,0.781,1.112,0.765,1.352,1.002,0.434,0.757,0.712,�k,3.3,��
2019/08/10,01:20,0.778,1.113,0.763,1.354,1.001,0.435,0.758,0.712,�k,4.1,��
2019/08/10,01:30,0.776,1.110,0.763,1.352,1.000,0.435,0.757,0.713,�k,5.2,��
2019/08/10,01:40,0.776,1.107,0.761,1.353,1.002,0.434,0.756,0.711,�k,7.4,��
2019/08/10,01:50,0.778,1.111,0.763,1.354,1.002,0.434,0.757,0.713,�k,6.5,��
2019/08/10,02:00,0.776,1.109,0.762,1.352,1.002,0.434,0.756,0.713,�k�k��,8.0,��
2019/08/10,02:10,0.777,1.110,0.763,1.352,1.001,0.433,0.754,0.711,�k,7.7,��
2019/08/10,02:20,0.777,1.109,0.762,1.352,1.001,0.432,0.756,0.713,�k�k��,7.8,��
2019/08/10,02:30,0.778,1.107,0.763,1.352,1.000,0.434,0.756,0.713,�k,7.8,��
2019/08/10,02:40,0.777,1.110,0.761,1.351,1.003,0.433,0.756,0.711,�k�k��,8.5,�L
2019/08/10,02:50,0.775,1.111,0.761,1.351,1.001,0.431,0.756,0.712,�k�k��,7.9,�L
2019/08/10,03:00,0.775,1.109,0.764,1.351,1.001,0.432,0.755,0.713,�k�k��,6.7,�L
2019/08/10,03:10,0.777,1.108,0.763,1.350,1.001,0.431,0.757,0.713,�k�k��,7.8,�L
2019/08/10,03:20,0.773,1.110,0.762,1.353,0.999,0.432,0.757,0.713,�k�k��,7.0,�L
2019/08/10,03:30,0.775,1.107,0.762,1.352,1.001,0.430,0.755,0.711,�k�k��,6.7,��
2019/08/10,03:40,0.773,1.108,0.764,1.352,1.002,0.432,0.756,0.712,�k�k��,7.6,�L
2019/08/10,03:50,0.775,1.110,0.762,1.353,1.001,0.431,0.754,0.712,�k�k��,6.9,��
2019/08/10,04:00,0.775,1.111,0.762,1.352,1.002,0.431,0.756,0.713,�k�k��,7.1,�L
2019/08/10,04:10,0.773,1.111,0.761,1.352,1.000,0.431,0.755,0.711,�k�k��,6.7,�L
2019/08/10,04:20,0.775,1.107,0.762,1.353,1.001,0.430,0.755,0.711,�k�k��,6.3,�L
2019/08/10,04:30,0.775,1.109,0.762,1.349,1.002,0.431,0.755,0.714,�k,4.7,��
2019/08/10,04:40,0.772,1.109,0.760,1.348,1.002,0.430,0.756,0.711,�k�k��,5.9,�L
2019/08/10,04:50,0.773,1.107,0.761,1.351,0.998,0.430,0.753,0.710,�k�k��,5.5,�L
2019/08/10,05:00,0.774,1.110,0.760,1.352,1.001,0.431,0.755,0.713,�k,6.1,�L
2019/08/10,05:10,0.774,1.109,0.760,1.352,1.000,0.431,0.755,0.712,�k,6.2,��
2019/08/10,05:20,0.774,1.108,0.763,1.350,0.999,0.432,0.754,0.713,�k,5.9,�L
2019/08/10,05:30,0.774,1.107,0.761,1.350,1.001,0.431,0.754,0.713,�k�k��,6.5,�L
2019/08/10,05:40,0.774,1.107,0.761,1.352,1.000,0.430,0.755,0.713,�k,5.4,�L
2019/08/10,05:50,0.775,1.109,0.761,1.351,0.998,0.431,0.755,0.711,�k,4.8,�L
2019/08/10,06:00,0.772,1.104,0.761,1.354,1.001,0.431,0.756,0.713,�k,5.4,�L
2019/08/10,06:10,0.774,1.107,0.761,1.352,0.999,0.431,0.754,0.712,�k�k��,5.4,�L
2019/08/10,06:20,0.772,1.107,0.761,1.351,1.000,0.431,0.753,0.712,�k,5.3,�L
2019/08/10,06:30,0.771,1.105,0.762,1.349,0.998,0.430,0.756,0.711,�k�k��,5.4,�L
2019/08/10,06:40,0.777,1.108,0.761,1.353,1.001,0.430,0.753,0.712,�k�k��,4.8,��
2019/08/10,06:50,0.775,1.106,0.761,1.354,0.999,0.432,0.755,0.714,�k�k��,4.9,�L
2019/08/10,07:00,0.774,1.108,0.760,1.351,0.999,0.431,0.755,0.713,�k�k��,4.7,�L
2019/08/10,07:10,0.774,1.106,0.761,1.352,1.000,0.431,0.754,0.712,�k�k��,3.4,�L
2019/08/10,07:20,0.773,1.106,0.761,1.352,0.999,0.432,0.754,0.713,�k�k��,3.2,��
2019/08/10,07:30,0.772,1.108,0.762,1.352,0.998,0.429,0.754,0.713,�k�k��,3.1,�L
2019/08/10,07:40,0.772,1.108,0.762,1.352,0.999,0.430,0.756,0.713,�k�k��,3.9,��
2019/08/10,07:50,0.775,1.109,0.760,1.352,0.997,0.429,0.755,0.711,�k�k��,3.4,�L
2019/08/10,08:00,0.774,1.109,0.762,1.352,1.000,0.430,0.754,0.713,�k�k��,2.9,�L
2019/08/10,08:10,0.774,1.109,0.761,1.350,0.999,0.431,0.756,0.712,�k�k��,2.6,��
2019/08/10,08:20,0.774,1.109,0.761,1.349,1.000,0.431,0.754,0.711,�k�k��,2.6,��
2019/08/10,08:30,0.775,1.110,0.761,1.352,0.999,0.431,0.753,0.713,�k,2.0,��
2019/08/10,08:40,0.775,1.105,0.760,1.352,1.000,0.431,0.755,0.713,�k�k��,2.3,��
2019/08/10,08:50,0.774,1.106,0.761,1.351,0.999,0.431,0.755,0.712,�k�k��,2.0,��
2019/08/10,09:00,0.775,1.108,0.761,1.353,1.001,0.430,0.755,0.712,�k�k��,2.6,��
2019/08/10,09:10,0.775,1.105,0.762,1.351,0.998,0.429,0.753,0.712,�k,2.2,��
2019/08/10,09:20,0.774,1.106,0.760,1.351,0.998,0.429,0.755,0.711,�k�k��,2.9,��
2019/08/10,09:30,0.774,1.110,0.760,1.353,0.999,0.431,0.755,0.713,�k,3.4,��
2019/08/10,09:40,0.775,1.107,0.759,1.351,1.002,0.431,0.756,0.713,�k,3.8,��
2019/08/10,09:50,0.776,1.106,0.762,1.351,1.002,0.431,0.754,0.712,�k,4.0,��
2019/08/10,10:00,0.773,1.109,0.761,1.350,0.999,0.429,0.755,0.712,�k�k��,2.9,��
2019/08/10,10:10,0.774,1.109,0.763,1.351,0.999,0.432,0.755,0.711,�k�k��,3.1,��
2019/08/10,10:20,0.773,1.110,0.760,1.351,0.999,0.429,0.756,0.711,�k�k��,3.3,��
2019/08/10,10:30,0.774,1.110,0.761,1.353,1.001,0.430,0.754,0.711,�k,3.7,��
2019/08/10,10:40,0.776,1.109,0.762,1.354,1.002,0.431,0.753,0.711,�k�k��,3.7,��
2019/08/10,10:50,0.774,1.112,0.762,1.351,1.001,0.430,0.754,0.712,�k,3.6,��
2019/08/10,11:00,0.773,1.111,0.763,1.353,1.001,0.431,0.754,0.710,�k�k��,3.5,��
2019/08/10,11:10,0.773,1.110,0.762,1.353,1.001,0.431,0.754,0.711,�k�k��,4.3,��
2019/08/10,11:20,0.773,1.111,0.762,1.353,1.001,0.430,0.755,0.711,�k,4.4,��
2019/08/10,11:30,0.774,1.111,0.760,1.353,1.001,0.430,0.754,0.710,�k,3.3,��
2019/08/10,11:40,0.774,1.109,0.762,1.351,1.000,0.431,0.755,0.711,�k,2.9,��
2019/08/10,11:50,0.774,1.110,0.762,1.352,0.999,0.430,0.754,0.711,�k,3.4,��
2019/08/10,12:00,0.773,1.109,0.763,1.355,1.003,0.429,0.754,0.711,�k�k��,2.3,��
2019/08/10,12:10,0.772,1.111,0.763,1.354,1.001,0.430,0.756,0.711,�k�k��,2.0,��
2019/08/10,12:20,0.775,1.110,0.765,1.354,1.002,0.430,0.755,0.711,�k,2.6,��
2019/08/10,12:30,0.775,1.109,0.765,1.354,1.000,0.431,0.758,0.710,�k,3.1,��
2019/08/10,12:40,0.773,1.111,0.764,1.355,1.001,0.430,0.755,0.712,�k�k��,2.9,��
2019/08/10,12:50,0.774,1.109,0.762,1.354,1.001,0.432,0.757,0.711,�k�k��,3.6,��
2019/08/10,13:00,0.775,1.109,0.763,1.352,1.002,0.431,0.755,0.712,�k,3.5,��
2019/08/10,13:10,0.773,1.110,0.764,1.352,1.001,0.431,0.756,0.711,�k�k��,3.2,��
2019/08/10,13:20,0.774,1.109,0.765,1.354,1.001,0.432,0.756,0.711,�k�k��,2.5,��
2019/08/10,13:30,0.775,1.112,0.764,1.355,1.002,0.432,0.756,0.710,�k�k��,3.1,��
2019/08/10,13:40,0.777,1.111,0.764,1.357,1.002,0.433,0.757,0.711,�k�k��,3.5,��
2019/08/10,13:50,0.776,1.112,0.765,1.354,1.004,0.433,0.754,0.712,�k�k��,2.6,��
2019/08/10,14:00,0.774,1.111,0.765,1.354,1.004,0.431,0.756,0.711,���k��,2.6,��
2019/08/10,14:10,0.774,1.113,0.762,1.354,1.003,0.431,0.755,0.711,�k��,2.6,��
2019/08/10,14:20,0.776,1.114,0.764,1.357,1.003,0.431,0.757,0.711,���k��,2.3,��
2019/08/10,14:30,0.775,1.112,0.764,1.354,1.005,0.432,0.757,0.710,��,2.0,��
2019/08/10,14:40,0.776,1.113,0.765,1.352,1.003,0.431,0.757,0.712,��,1.4,��
2019/08/10,14:50,0.777,1.113,0.763,1.352,1.001,0.432,0.756,0.712,���k��,1.7,��
2019/08/10,15:00,0.776,1.112,0.761,1.357,1.004,0.433,0.755,0.712,��,1.5,��
2019/08/10,15:10,0.775,1.113,0.761,1.356,1.004,0.434,0.756,0.712,���쓌,2.0,��
2019/08/10,15:20,0.774,1.112,0.765,1.354,1.001,0.431,0.757,0.713,��,1.7,��
2019/08/10,15:30,0.776,1.112,0.763,1.355,1.002,0.432,0.756,0.712,��,1.7,��
2019/08/10,15:40,0.776,1.110,0.763,1.355,1.003,0.433,0.756,0.712,���k��,1.9,��
2019/08/10,15:50,0.776,1.109,0.764,1.357,1.003,0.434,0.758,0.713,���k��,1.7,��
2019/08/10,16:00,0.775,1.110,0.762,1.356,1.004,0.432,0.756,0.711,�쓌,1.7,��
2019/08/10,16:10,0.777,1.110,0.763,1.354,1.001,0.432,0.756,0.713,���쓌,1.4,��
2019/08/10,16:20,0.777,1.112,0.763,1.357,1.003,0.433,0.756,0.713,�쓌,1.5,��
2019/08/10,16:30,0.776,1.111,0.763,1.358,1.003,0.432,0.755,0.713,-,CALM,��
2019/08/10,16:40,0.777,1.113,0.765,1.356,1.003,0.435,0.755,0.711,��,0.8,��
2019/08/10,16:50,0.777,1.110,0.764,1.354,1.003,0.433,0.755,0.712,��,0.9,��
2019/08/10,17:00,0.778,1.111,0.763,1.355,1.001,0.432,0.755,0.713,��,0.8,��
2019/08/10,17:10,0.776,1.109,0.763,1.354,1.006,0.432,0.756,0.712,�쓌,1.2,��
2019/08/10,17:20,0.777,1.111,0.762,1.353,1.004,0.432,0.756,0.714,�k�k��,0.8,��
2019/08/10,17:30,0.777,1.110,0.762,1.356,1.005,0.435,0.756,0.712,��쓌,0.8,��
2019/08/10,17:40,0.776,1.113,0.765,1.356,1.002,0.433,0.756,0.713,-,CALM,��
2019/08/10,17:50,0.778,1.112,0.765,1.355,1.002,0.432,0.758,0.713,�k�k��,0.9,��
2019/08/10,18:00,0.776,1.109,0.764,1.355,1.004,0.434,0.755,0.711,���k��,1.1,��
2019/08/10,18:10,0.776,1.109,0.765,1.355,1.002,0.433,0.756,0.711,�k�k��,0.9,��
2019/08/10,18:20,0.775,1.111,0.763,1.354,1.003,0.433,0.755,0.713,-,CALM,��
2019/08/10,18:30,0.776,1.110,0.764,1.354,1.002,0.432,0.756,0.713,��,1.5,��
2019/08/10,18:40,0.775,1.109,0.762,1.354,1.004,0.433,0.757,0.713,��쐼,0.9,��
2019/08/10,18:50,0.776,1.110,0.764,1.354,1.002,0.433,0.757,0.713,��쐼,0.9,��
2019/08/10,19:00,0.778,1.110,0.764,1.354,1.002,0.432,0.758,0.712,��쐼,1.2,��
2019/08/10,19:10,0.778,1.114,0.761,1.355,1.003,0.433,0.755,0.712,��,1.1,��
2019/08/10,19:20,0.777,1.113,0.763,1.357,1.001,0.433,0.755,0.714,�쐼,1.2,��
2019/08/10,19:30,0.778,1.111,0.762,1.353,1.001,0.434,0.758,0.712,-,CALM,��
2019/08/10,19:40,0.777,1.110,0.763,1.355,1.002,0.434,0.757,0.713,�쓌,1.4,��
2019/08/10,19:50,0.776,1.109,0.763,1.355,1.001,0.433,0.757,0.713,��,0.6,��
2019/08/10,20:00,0.775,1.109,0.763,1.353,1.001,0.434,0.755,0.713,��쓌,1.5,��
2019/08/10,20:10,0.774,1.110,0.764,1.355,1.003,0.434,0.757,0.711,�쓌,1.5,��
2019/08/10,20:20,0.775,1.109,0.761,1.356,1.003,0.433,0.756,0.713,�쓌,1.5,��
2019/08/10,20:30,0.775,1.110,0.762,1.354,1.002,0.432,0.754,0.713,���쓌,1.2,��
2019/08/10,20:40,0.777,1.108,0.763,1.354,1.001,0.433,0.755,0.713,���쓌,1.2,��
2019/08/10,20:50,0.776,1.110,0.762,1.354,1.000,0.433,0.755,0.712,��,0.8,��
2019/08/10,21:00,0.776,1.108,0.761,1.353,1.001,0.433,0.754,0.711,�k�k��,1.2,��
2019/08/10,21:10,0.774,1.110,0.763,1.355,1.002,0.433,0.755,0.711,�k�k��,1.2,��
2019/08/10,21:20,0.776,1.110,0.763,1.355,1.001,0.432,0.755,0.711,�k�k��,1.7,��
2019/08/10,21:30,0.775,1.108,0.763,1.356,1.004,0.434,0.756,0.713,�k�k��,1.2,��
2019/08/10,21:40,0.776,1.111,0.763,1.355,1.001,0.433,0.755,0.713,�k�k��,1.2,��
2019/08/10,21:50,0.777,1.111,0.762,1.355,1.002,0.434,0.755,0.713,���k��,0.6,��
2019/08/10,22:00,0.776,1.110,0.763,1.353,1.000,0.432,0.756,0.714,�k��,0.6,��
2019/08/10,22:10,0.775,1.110,0.763,1.357,1.002,0.432,0.757,0.714,�k�k��,1.2,��
2019/08/10,22:20,0.775,1.110,0.763,1.356,1.002,0.433,0.758,0.712,�k,1.7,��
2019/08/10,22:30,0.774,1.110,0.763,1.354,1.002,0.432,0.755,0.713,�k,1.1,��
2019/08/10,22:40,0.775,1.107,0.764,1.353,1.003,0.432,0.755,0.712,�k,1.5,��
2019/08/10,22:50,0.776,1.110,0.764,1.353,1.000,0.433,0.756,0.713,�k�k��,1.7,��
2019/08/10,23:00,0.776,1.110,0.765,1.356,1.003,0.433,0.755,0.712,�k�k��,1.4,��
2019/08/10,23:10,0.776,1.110,0.764,1.356,1.003,0.432,0.755,0.712,���k��,1.2,��
2019/08/10,23:20,0.776,1.108,0.766,1.354,1.001,0.432,0.756,0.713,�k��,1.2,��
2019/08/10,23:30,0.776,1.109,0.765,1.355,1.000,0.434,0.757,0.712,��,0.9,��
2019/08/10,23:40,0.775,1.110,0.764,1.354,1.002,0.434,0.755,0.712,�k,1.1,��
2019/08/10,23:50,0.773,1.110,0.764,1.355,1.001,0.433,0.756,0.713,�k�k��,0.8,��
